Regional Weather Roundup
Issued by NWS

Home | Current Version | Previous Version | Graphics & Text | Print | Product List | Glossary On
Versions: 1 2 3 4 5 6 7 8 9 10 11 12 13 14 15 16 17 18 19 20 21 22 23 24 25 26 27 28 29 30 31 32 33 34 35 36 37 38 39 40 41 42 43 44 45 46 47 48 49 50
103
ASUS43 KOAX 210802
RWRNE

WEATHER ROUNDUP FOR NEBRASKA
NATIONAL WEATHER SERVICE OMAHA NE
300 AM CDT SAT OCT 21 2017

NOTES: SATELLITE DATA IS BEING USED TO AUGMENT CLOUD COVER ABOVE
       12000 FEET.
       "FAIR" INDICATES FEW OR NO CLOUDS BELOW 12,000 FEET WITH NO
       SIGNIFICANT WEATHER AND/OR OBSTRUCTIONS TO VISIBILITY.


NEZ001>004-019>022-054>056-210900-
NEBRASKA PANHANDLE

CITY           SKY/WX    TMP DP  RH WIND       PRES   REMARKS
SCOTTSBLUFF    CLOUDY    52  32  46 W17G31    29.64R
ALLIANCE       CLOUDY    55  36  48 NW20G30   29.55R
CHADRON        CLOUDY    59  25  27 W21G33    29.61R
GORDON         CLOUDY    63  34  34 NW21G29   29.51R
KIMBALL        CLOUDY    47  26  43 NW23G31   29.64R
SIDNEY         CLOUDY    50  33  52 NW26G37   29.60R
$$

NEZ057>060-069>072-079>082-210900-
SOUTHWEST NEBRASKA

CITY           SKY/WX    TMP DP  RH WIND       PRES   REMARKS
NORTH PLATTE   CLOUDY    61  56  83 E10       29.43F
IMPERIAL       CLOUDY    56  43  61 W10       29.48R
LEXINGTON      CLEAR     65  58  77 S18G25    29.47F
MCCOOK         CLOUDY    65  54  67 S16G31    29.46R
OGALLALA       CLOUDY    51  47  85 W5        29.48R
$$

NEZ005>010-023>029-035>040-094-210900-
NORTH CENTRAL NEBRASKA

CITY           SKY/WX    TMP DP  RH WIND       PRES   REMARKS
VALENTINE      CLEAR     59  53  80 S12       29.46R
AINSWORTH      CLEAR     60  58  91 S13G20    29.43F
BROKEN BOW     CLEAR     64  58  80 S12       29.46F
O`NEILL        MOCLDY    65  59  83 S16G22    29.48S
ORD            CLOUDY    65  59  81 S14G22    29.48F
THEDFORD       PTCLDY    61  56  85 W17G29    29.49R
$$

NEZ041-046>049-061>064-073>077-083>087-210900-
SOUTH CENTRAL NEBRASKA

CITY           SKY/WX    TMP DP  RH WIND       PRES   REMARKS
GRAND ISLAND   CLOUDY    67  62  84 S24G32    29.53F
AURORA         CLOUDY    68  61  77 S22G32    29.55S
HASTINGS       PTCLDY    67  60  78 S17G29    29.55F
HEBRON         CLOUDY    71  62  73 S25G33    29.61F
HOLDREGE       CLEAR     65  59  80 S18G25    29.52S
KEARNEY        CLEAR     66  60  81 S22G31    29.52F
YORK           CLOUDY    68  63  83 S28G35    29.57F
$$

NEZ011>018-030>034-042>045-210900-
NORTHEAST NEBRASKA

CITY           SKY/WX    TMP DP  RH WIND       PRES   REMARKS
NORFOLK        CLOUDY    67  59  75 S18G33    29.53F
ALBION         CLOUDY    69  60  75 S20G29    29.53F
BLAIR          CLOUDY    66  60  80 S23G29    29.64F
COLUMBUS       CLOUDY    68  60  75 S15G28    29.56F
FREMONT        CLOUDY    67  59  73 SE21G29   29.60F
TEKAMAH        CLOUDY    67  57  70 SE15G24   29.61F
WAYNE          CLOUDY    68  61  78 S21G32    29.55F
$$

NEZ050>053-065>068-078-088>093-210900-
SOUTHEAST NEBRASKA

CITY           SKY/WX    TMP DP  RH WIND       PRES   REMARKS
LINCOLN        CLOUDY    69  60  73 S25G36    29.60F
OMAHA EPPLEY   TSTM      65  59  81 S21       29.65F
BEATRICE       CLOUDY    69  61  77 S23G32    29.64F
FALLS CITY     MOCLDY    66  59  78 S18G29    29.72F
NEBRASKA CITY  CLOUDY    65  64  96 S18G26    29.69F
PLATTSMOUTH    CLOUDY    65  63  92 S16G26    29.67S
$$

NEZ044-045-051>053-067-210900-
OMAHA AREA

CITY           SKY/WX    TMP DP  RH WIND       PRES   REMARKS
OMAHA EPPLEY   TSTM      65  59  81 S21       29.65F
BLAIR          CLOUDY    66  60  80 S23G29    29.64F
FREMONT        CLOUDY    67  59  73 SE21G29   29.60F
MILLARD        CLOUDY    68  61  78 S15G21    29.65F
OFFUTT AFB     LGT RAIN  64  61  88 SE13      29.65F
PLATTSMOUTH    CLOUDY    65  63  92 S16G26    29.67S
WAHOO          LGT RAIN  68  60  75 S22G31    29.61F
$$




USA.gov is the U.S. government's official web portal to all federal, state and local government web resources and services.